BAW417 ELLX-EGLL

Flight info

Callsign BAW417
Flight time 1h 0m
Altitude 36000
Route LNO N852 TERLA L608 LOGAN
Aircraft A320/M-SDE3FGHIRWY/LB1

Departure

Time 2026-05-04 20:26
Airport Luxembourg-Findel International Airport (ELLX)

Arrival

Time 2026-05-04 21:26
Airport London Heathrow Airport (EGLL)
Time Latitude Longitude Altitude Speed Heading
2026-05-04 20:09 49.63391 6.21791 1230 ft 0 kts 330°
2026-05-04 20:17 49.63391 6.21792 1230 ft 1 kts 330°
2026-05-04 20:18 49.63370 6.21810 1230 ft 4 kts 330°
2026-05-04 20:18 49.63352 6.21826 1230 ft 4 kts 351°
2026-05-04 20:18 49.63332 6.21816 1230 ft 4 kts 55°
2026-05-04 20:18 49.63319 6.21783 1230 ft 4 kts 60°
2026-05-04 20:19 49.63306 6.21748 1230 ft 3 kts 60°
2026-05-04 20:19 49.63304 6.21744 1230 ft 0 kts 60°
2026-05-04 20:21 49.63309 6.21757 1230 ft 4 kts 60°
2026-05-04 20:21 49.63259 6.21843 1230 ft 9 kts 151°
2026-05-04 20:22 49.63191 6.21902 1228 ft 12 kts 148°
2026-05-04 20:22 49.63193 6.22020 1228 ft 13 kts 65°
2026-05-04 20:22 49.63234 6.22155 1227 ft 15 kts 64°
2026-05-04 20:22 49.63287 6.22327 1223 ft 20 kts 64°
2026-05-04 20:23 49.63359 6.22546 1215 ft 25 kts 62°
2026-05-04 20:23 49.63450 6.22790 1215 ft 27 kts 60°
2026-05-04 20:23 49.63547 6.23052 1214 ft 27 kts 60°
2026-05-04 20:23 49.63638 6.23297 1213 ft 26 kts 59°
2026-05-04 20:24 49.63704 6.23495 1211 ft 14 kts 87°
2026-05-04 20:24 49.63635 6.23548 1213 ft 13 kts 192°
2026-05-04 20:24 49.63553 6.23520 1215 ft 11 kts 191°
2026-05-04 20:24 49.63507 6.23476 1216 ft 7 kts 238°
2026-05-04 20:25 49.63500 6.23457 1216 ft 0 kts 241°
2026-05-04 20:25 49.63493 6.23438 1216 ft 15 kts 241°
2026-05-04 20:25 49.63316 6.22960 1209 ft 85 kts 240°
2026-05-04 20:25 49.62932 6.21931 1215 ft 134 kts 240°
2026-05-04 20:26 49.62406 6.20504 1278 ft 169 kts 239°
2026-05-04 20:26 49.61844 6.18934 1892 ft 166 kts 238°
2026-05-04 20:26 49.61260 6.17389 2548 ft 167 kts 238°
2026-05-04 20:26 49.60687 6.15842 3210 ft 165 kts 238°
2026-05-04 20:27 49.60120 6.14314 3819 ft 165 kts 238°
2026-05-04 20:27 49.59505 6.12679 3995 ft 191 kts 238°
2026-05-04 20:27 49.58789 6.10778 4006 ft 218 kts 238°
2026-05-04 20:27 49.57970 6.08599 4220 ft 248 kts 239°
2026-05-04 20:28 49.57090 6.06245 4944 ft 257 kts 240°
2026-05-04 20:28 49.56534 6.03608 5758 ft 266 kts 268°
2026-05-04 20:28 49.57033 6.00857 6582 ft 276 kts 301°
2026-05-04 20:28 49.58493 5.98912 7378 ft 286 kts 335°
2026-05-04 20:29 49.60471 5.98404 8167 ft 295 kts
2026-05-04 20:29 49.62515 5.98851 8972 ft 299 kts
2026-05-04 20:29 49.64578 5.99446 9758 ft 304 kts
2026-05-04 20:29 49.66686 6.00057 10291 ft 317 kts
2026-05-04 20:30 49.68941 6.00683 10489 ft 340 kts
2026-05-04 20:30 49.71364 6.00998 10795 ft 356 kts
2026-05-04 20:30 49.73829 6.01023 11394 ft 361 kts 357°
2026-05-04 20:30 49.76353 6.00914 12055 ft 365 kts 356°
2026-05-04 20:31 49.78907 6.00774 12717 ft 369 kts 356°
2026-05-04 20:31 49.81486 6.00659 13397 ft 373 kts 356°
2026-05-04 20:31 49.84092 6.00586 14032 ft 377 kts 357°
2026-05-04 20:31 49.86727 6.00554 14614 ft 380 kts 358°
2026-05-04 20:32 49.89386 6.00548 15188 ft 384 kts 358°
2026-05-04 20:32 49.92072 6.00547 15745 ft 388 kts 358°
2026-05-04 20:32 49.94785 6.00542 16286 ft 392 kts 358°
2026-05-04 20:32 49.97527 6.00535 16858 ft 396 kts 358°
2026-05-04 20:33 50.00292 6.00529 17413 ft 399 kts 358°
2026-05-04 20:33 50.03084 6.00522 17974 ft 403 kts 359°
2026-05-04 20:33 50.05901 6.00478 18507 ft 406 kts 355°
2026-05-04 20:33 50.08700 5.99856 19012 ft 407 kts 344°
2026-05-04 20:34 50.11396 5.98513 19524 ft 408 kts 336°
2026-05-04 20:34 50.14065 5.96957 20046 ft 411 kts 337°
2026-05-04 20:34 50.16749 5.95404 20572 ft 413 kts 337°
2026-05-04 20:34 50.19447 5.93846 21138 ft 414 kts 337°
2026-05-04 20:35 50.22151 5.92287 21635 ft 416 kts 337°
2026-05-04 20:35 50.24875 5.90717 22105 ft 418 kts 337°
2026-05-04 20:35 50.27616 5.89137 22575 ft 421 kts 338°
2026-05-04 20:35 50.30371 5.87541 23020 ft 424 kts 338°
2026-05-04 20:36 50.33112 5.85946 23455 ft 427 kts 338°
2026-05-04 20:36 50.35903 5.84319 23845 ft 430 kts 337°
2026-05-04 20:36 50.38713 5.82681 24218 ft 432 kts 337°
2026-05-04 20:36 50.41543 5.81029 24589 ft 435 kts 337°
2026-05-04 20:37 50.44390 5.79364 24959 ft 438 kts 337°
2026-05-04 20:37 50.47261 5.77679 25309 ft 440 kts 337°
2026-05-04 20:37 50.50129 5.75991 25654 ft 443 kts 336°
2026-05-04 20:37 50.53030 5.74287 25994 ft 446 kts 336°
2026-05-04 20:38 50.55948 5.72576 26328 ft 449 kts 336°
2026-05-04 20:38 50.58885 5.70865 26675 ft 452 kts 337°
2026-05-04 20:38 50.61798 5.68994 27013 ft 452 kts 330°
2026-05-04 20:38 50.64517 5.66545 27361 ft 450 kts 321°
2026-05-04 20:39 50.66930 5.63439 27712 ft 447 kts 310°
2026-05-04 20:39 50.68909 5.59695 28076 ft 443 kts 300°
2026-05-04 20:39 50.70395 5.55476 28430 ft 439 kts 289°
2026-05-04 20:39 50.71414 5.50955 28772 ft 438 kts 283°
2026-05-04 20:40 50.72324 5.46364 29123 ft 439 kts 283°
2026-05-04 20:40 50.73242 5.41769 29600 ft 438 kts 283°
2026-05-04 20:40 50.74159 5.37194 30120 ft 436 kts 283°
2026-05-04 20:40 50.75071 5.32632 30565 ft 434 kts 283°
2026-05-04 20:41 50.75976 5.28096 31009 ft 433 kts 283°
2026-05-04 20:41 50.76881 5.23561 31432 ft 432 kts 283°
2026-05-04 20:41 50.77782 5.19039 31866 ft 431 kts 283°
2026-05-04 20:41 50.78676 5.14528 32321 ft 430 kts 283°
2026-05-04 20:42 50.79566 5.10020 32725 ft 430 kts 283°
2026-05-04 20:42 50.80452 5.05513 33131 ft 429 kts 283°
2026-05-04 20:42 50.81331 5.01010 33564 ft 428 kts 283°
2026-05-04 20:42 50.82195 4.96514 33996 ft 427 kts 282°
2026-05-04 20:43 50.83049 4.92019 34352 ft 426 kts 282°
2026-05-04 20:43 50.83883 4.87598 34673 ft 426 kts 282°
2026-05-04 20:43 50.84729 4.83107 34976 ft 426 kts 283°
2026-05-04 20:43 50.85576 4.78620 35273 ft 426 kts 283°
2026-05-04 20:44 50.86426 4.74133 35570 ft 426 kts 283°
2026-05-04 20:44 50.87277 4.69640 35856 ft 426 kts 283°
2026-05-04 20:44 50.88123 4.65129 35966 ft 430 kts 283°
2026-05-04 20:44 50.88976 4.60561 35976 ft 435 kts 283°
2026-05-04 20:45 50.91118 4.51548 35974 ft 442 kts 296°
2026-05-04 20:45 50.94326 4.43185 35975 ft 444 kts 298°
2026-05-04 20:46 50.97544 4.34821 35975 ft 444 kts 298°
2026-05-04 20:46 51.00726 4.26495 35974 ft 444 kts 298°
2026-05-04 20:47 51.03922 4.18097 35976 ft 444 kts 298°
2026-05-04 20:47 51.07112 4.09682 35980 ft 444 kts 298°
2026-05-04 20:48 51.10301 4.01256 35982 ft 444 kts 298°
2026-05-04 20:48 51.13480 3.92821 35984 ft 444 kts 297°
2026-05-04 20:49 51.16656 3.84379 35982 ft 444 kts 297°
2026-05-04 20:49 51.19827 3.75923 35989 ft 444 kts 298°
2026-05-04 20:50 51.22988 3.67452 35990 ft 444 kts 298°
2026-05-04 20:50 51.26146 3.58987 35996 ft 444 kts 298°
2026-05-04 20:51 51.29272 3.50574 35996 ft 443 kts 298°
2026-05-04 20:51 51.32401 3.42083 36003 ft 443 kts 298°
2026-05-04 20:52 51.35311 3.33430 36015 ft 440 kts 289°
2026-05-04 20:52 51.37481 3.24291 36009 ft 439 kts 288°
2026-05-04 20:53 51.39640 3.15143 36008 ft 439 kts 288°
2026-05-04 20:53 51.41797 3.05998 36015 ft 439 kts 288°
2026-05-04 20:54 51.43955 2.96843 36013 ft 439 kts 288°
2026-05-04 20:54 51.46099 2.87677 36025 ft 439 kts 288°
2026-05-04 20:55 51.48222 2.78573 36018 ft 439 kts 288°
2026-05-04 20:55 51.50350 2.69387 36023 ft 439 kts 288°
2026-05-04 20:56 51.52475 2.60197 36023 ft 439 kts 288°
2026-05-04 20:56 51.54590 2.51006 36020 ft 439 kts 288°
2026-05-04 20:57 51.56692 2.41793 35777 ft 439 kts 287°
2026-05-04 20:57 51.57738 2.37174 35131 ft 441 kts 288°
2026-05-04 20:57 51.58793 2.32518 34362 ft 445 kts 288°
2026-05-04 20:58 51.59861 2.27822 33483 ft 450 kts 288°
2026-05-04 20:58 51.60941 2.23083 32596 ft 452 kts 288°
2026-05-04 20:58 51.62025 2.18324 31755 ft 454 kts 288°
2026-05-04 20:58 51.63103 2.13576 31280 ft 448 kts 288°
2026-05-04 20:59 51.64164 2.08880 30729 ft 443 kts 288°
2026-05-04 20:59 51.65209 2.04233 30164 ft 440 kts 288°
2026-05-04 20:59 51.66229 1.99688 29572 ft 435 kts 288°
2026-05-04 20:59 51.67249 1.95130 29035 ft 429 kts 288°
2026-05-04 21:00 51.68251 1.90634 28503 ft 424 kts 287°
2026-05-04 21:00 51.69241 1.86190 27969 ft 419 kts 287°
2026-05-04 21:00 51.70218 1.81796 27444 ft 414 kts 287°
2026-05-04 21:00 51.71181 1.77448 26925 ft 410 kts 287°
2026-05-04 21:01 51.72131 1.73144 26421 ft 405 kts 287°
2026-05-04 21:01 51.73072 1.68877 25916 ft 402 kts 288°
2026-05-04 21:01 51.73941 1.64630 25433 ft 396 kts 282°
2026-05-04 21:01 51.74412 1.60237 24949 ft 406 kts 273°
2026-05-04 21:02 51.74413 1.55575 24296 ft 421 kts 263°
2026-05-04 21:02 51.74103 1.50872 23661 ft 421 kts 263°
2026-05-04 21:02 51.73795 1.46189 22965 ft 418 kts 263°
2026-05-04 21:02 51.73494 1.41539 22349 ft 416 kts 262°
2026-05-04 21:03 51.73196 1.36908 21728 ft 415 kts 263°
2026-05-04 21:03 51.72900 1.32302 21113 ft 410 kts 263°
2026-05-04 21:03 51.72603 1.27748 20501 ft 406 kts 262°
2026-05-04 21:03 51.72305 1.23233 19892 ft 404 kts 262°
2026-05-04 21:04 51.72006 1.18746 19288 ft 402 kts 263°
2026-05-04 21:04 51.71704 1.14275 18688 ft 400 kts 262°
2026-05-04 21:04 51.71403 1.09827 18052 ft 398 kts 262°
2026-05-04 21:04 51.71203 1.06897 17639 ft 396 kts 262°
2026-05-04 21:05 51.70900 1.02507 17031 ft 393 kts 263°
2026-05-04 21:05 51.70599 0.98145 16381 ft 390 kts 263°
2026-05-04 21:05 51.70302 0.93808 15742 ft 388 kts 263°
2026-05-04 21:05 51.70006 0.89472 15002 ft 389 kts 263°
2026-05-04 21:06 51.69609 0.83727 14040 ft 390 kts 263°
2026-05-04 21:06 51.69304 0.79390 13324 ft 388 kts 263°
2026-05-04 21:06 51.69097 0.76496 13126 ft 379 kts 263°
2026-05-04 21:06 51.68800 0.72361 12865 ft 365 kts 263°
2026-05-04 21:07 51.68515 0.68368 12287 ft 352 kts 263°
2026-05-04 21:07 51.68241 0.64522 11674 ft 339 kts 263°
2026-05-04 21:07 51.67974 0.60764 11197 ft 336 kts 263°
2026-05-04 21:07 51.67709 0.57098 11066 ft 323 kts 263°
2026-05-04 21:08 51.67454 0.53612 10904 ft 303 kts 263°
2026-05-04 21:08 51.67217 0.50345 10722 ft 284 kts 263°
2026-05-04 21:08 51.66995 0.47279 10517 ft 269 kts 263°
2026-05-04 21:08 51.66782 0.44324 10193 ft 265 kts 263°
2026-05-04 21:09 51.66567 0.41393 9792 ft 262 kts 263°
2026-05-04 21:09 51.66350 0.38474 9368 ft 264 kts 263°
2026-05-04 21:09 51.66130 0.35530 9013 ft 262 kts 263°
2026-05-04 21:09 51.65917 0.32690 8574 ft 257 kts 263°
2026-05-04 21:10 51.65705 0.29858 8155 ft 253 kts 263°
2026-05-04 21:10 51.65494 0.27052 7758 ft 251 kts 263°
2026-05-04 21:10 51.65286 0.24272 7372 ft 250 kts 264°
2026-05-04 21:10 51.65083 0.21541 7275 ft 245 kts 264°
2026-05-04 21:11 51.64874 0.18810 7188 ft 243 kts 263°
2026-05-04 21:11 51.64665 0.16147 7084 ft 237 kts 264°
2026-05-04 21:11 51.64587 0.13507 7051 ft 236 kts 270°
2026-05-04 21:11 51.64601 0.10852 7062 ft 238 kts 271°
2026-05-04 21:12 51.64627 0.08192 7062 ft 237 kts 271°
2026-05-04 21:12 51.64653 0.05537 7061 ft 237 kts 271°
2026-05-04 21:12 51.64677 0.02895 7037 ft 237 kts 271°
2026-05-04 21:12 51.64703 0.00226 6741 ft 239 kts 271°
2026-05-04 21:13 51.64728 -0.02444 6454 ft 238 kts 271°
2026-05-04 21:13 51.64738 -0.05080 6248 ft 234 kts 266°
2026-05-04 21:13 51.64545 -0.07668 6041 ft 232 kts 262°
2026-05-04 21:13 51.64290 -0.10226 5835 ft 232 kts 261°
2026-05-04 21:14 51.64026 -0.12789 5630 ft 231 kts 261°
2026-05-04 21:14 51.63755 -0.15338 5426 ft 231 kts 261°
2026-05-04 21:14 51.63480 -0.17893 5224 ft 232 kts 261°
2026-05-04 21:14 51.63208 -0.20457 5072 ft 233 kts 261°
2026-05-04 21:15 51.62929 -0.23014 5002 ft 231 kts 261°
2026-05-04 21:15 51.62649 -0.25535 5011 ft 232 kts 261°
2026-05-04 21:15 51.62367 -0.28092 5006 ft 231 kts 261°
2026-05-04 21:15 51.62077 -0.30630 5010 ft 231 kts 261°
2026-05-04 21:16 51.61792 -0.33129 5003 ft 220 kts 261°
2026-05-04 21:16 51.61525 -0.35497 5008 ft 213 kts 261°
2026-05-04 21:16 51.61266 -0.37826 5010 ft 211 kts 261°
2026-05-04 21:16 51.61003 -0.40150 5012 ft 212 kts 261°
2026-05-04 21:17 51.60747 -0.42487 5011 ft 212 kts 261°
2026-05-04 21:17 51.60488 -0.44820 5013 ft 212 kts 261°
2026-05-04 21:17 51.60229 -0.47149 5013 ft 211 kts 261°
2026-05-04 21:17 51.60001 -0.49474 5009 ft 211 kts 265°
2026-05-04 21:18 51.59854 -0.51825 5011 ft 211 kts 266°
2026-05-04 21:18 51.59721 -0.54169 5008 ft 210 kts 266°
2026-05-04 21:18 51.59587 -0.56507 5008 ft 210 kts 266°
2026-05-04 21:18 51.59447 -0.58846 4850 ft 210 kts 266°
2026-05-04 21:19 51.59305 -0.61179 4589 ft 209 kts 266°
2026-05-04 21:19 51.59169 -0.63515 4328 ft 210 kts 266°
2026-05-04 21:19 51.59029 -0.65860 4068 ft 211 kts 266°
2026-05-04 21:19 51.58885 -0.68213 3813 ft 212 kts 265°
2026-05-04 21:20 51.58753 -0.70541 3558 ft 212 kts 265°
2026-05-04 21:20 51.58299 -0.72766 3304 ft 213 kts 233°
2026-05-04 21:20 51.57147 -0.74241 3075 ft 214 kts 206°
2026-05-04 21:20 51.55786 -0.75231 2996 ft 214 kts 201°
2026-05-04 21:21 51.54458 -0.76125 3013 ft 203 kts 201°
2026-05-04 21:21 51.53146 -0.76806 3009 ft 195 kts 180°
2026-05-04 21:21 51.51862 -0.76341 3001 ft 189 kts 149°
2026-05-04 21:21 51.50752 -0.75243 3002 ft 187 kts 143°
2026-05-04 21:22 51.49696 -0.74029 3002 ft 186 kts 141°
2026-05-04 21:22 51.48669 -0.72773 2968 ft 185 kts 133°
2026-05-04 21:22 51.47936 -0.71129 2839 ft 180 kts 111°
2026-05-04 21:22 51.47647 -0.69199 2651 ft 178 kts 90°
2026-05-04 21:23 51.47655 -0.67217 2428 ft 177 kts 88°
2026-05-04 21:23 51.47667 -0.65259 2208 ft 171 kts 88°
2026-05-04 21:23 51.47677 -0.63415 1969 ft 157 kts 87°
2026-05-04 21:23 51.47685 -0.61740 1762 ft 144 kts 87°
2026-05-04 21:24 51.47694 -0.60170 1567 ft 139 kts 87°
2026-05-04 21:24 51.47702 -0.58629 1386 ft 137 kts 86°
2026-05-04 21:24 51.47709 -0.57103 1197 ft 136 kts 86°
2026-05-04 21:24 51.47717 -0.55577 1009 ft 137 kts 87°
2026-05-04 21:25 51.47724 -0.54043 819 ft 138 kts 86°
2026-05-04 21:25 51.47731 -0.52516 629 ft 139 kts 86°
2026-05-04 21:25 51.47737 -0.50967 433 ft 140 kts 87°
2026-05-04 21:25 51.47748 -0.49402 259 ft 140 kts 86°
2026-05-04 21:26 51.47752 -0.47821 91 ft 135 kts 87°
2026-05-04 21:26 51.47758 -0.46538 92 ft 91 kts 90°
2026-05-04 21:26 51.47761 -0.45785 84 ft 48 kts 89°
2026-05-04 21:26 51.47737 -0.45491 87 ft 17 kts 139°
2026-05-04 21:27 51.47631 -0.45467 86 ft 14 kts 182°
2026-05-04 21:27 51.47596 -0.45581 87 ft 13 kts 270°
2026-05-04 21:27 51.47596 -0.45734 88 ft 15 kts 269°
2026-05-04 21:27 51.47595 -0.45901 88 ft 14 kts 270°
2026-05-04 21:28 51.47595 -0.45977 89 ft 0 kts 270°
2026-05-04 21:29 51.47595 -0.45987 90 ft 2 kts 270°
2026-05-04 21:29 51.47595 -0.46040 88 ft 8 kts 270°
2026-05-04 21:29 51.47595 -0.46157 88 ft 12 kts 269°
2026-05-04 21:29 51.47594 -0.46299 90 ft 14 kts 269°
2026-05-04 21:30 51.47593 -0.46467 86 ft 16 kts 269°
2026-05-04 21:30 51.47592 -0.46663 86 ft 19 kts 269°
2026-05-04 21:30 51.47585 -0.46882 86 ft 21 kts 265°
2026-05-04 21:30 51.47583 -0.47122 86 ft 20 kts 270°
2026-05-04 21:31 51.47581 -0.47577 86 ft 18 kts 269°
2026-05-04 21:31 51.47581 -0.47776 87 ft 18 kts 271°
2026-05-04 21:31 51.47581 -0.47982 88 ft 19 kts 269°
2026-05-04 21:32 51.47580 -0.48186 90 ft 18 kts 269°
2026-05-04 21:32 51.47578 -0.48377 89 ft 13 kts 268°
2026-05-04 21:32 51.47529 -0.48475 88 ft 13 kts 186°
2026-05-04 21:32 51.47438 -0.48476 86 ft 13 kts 180°
2026-05-04 21:33 51.47343 -0.48475 86 ft 14 kts 179°
2026-05-04 21:33 51.47245 -0.48474 86 ft 14 kts 180°
2026-05-04 21:33 51.47143 -0.48474 86 ft 15 kts 180°
2026-05-04 21:33 51.47038 -0.48473 86 ft 15 kts 180°
2026-05-04 21:34 51.46941 -0.48471 88 ft 11 kts 179°
2026-05-04 21:34 51.46880 -0.48494 89 ft 8 kts 238°
2026-05-04 21:34 51.46877 -0.48585 86 ft 9 kts 270°
2026-05-04 21:34 51.46878 -0.48684 86 ft 9 kts 270°
2026-05-04 21:35 51.46877 -0.48787 86 ft 9 kts 269°
2026-05-04 21:35 51.46877 -0.48849 86 ft 4 kts 274°
2026-05-04 21:35 51.46894 -0.48858 89 ft 3 kts 358°
2026-05-04 21:35 51.46917 -0.48859 86 ft 3 kts 359°
2026-05-04 21:36 51.46929 -0.48859 86 ft 1 kts 359°
2026-05-04 21:36 51.46930 -0.48859 86 ft 0 kts 359°